Вернуться в каталог

COSMOS 2251 DEB

АктивенLEO
NORAD 34756·DEBRIS·🇷🇺 Russia

Запущен Jun 16, 1993 с Plesetsk Cosmodrome

Loading…

Ближайшие Пролёты (ближайшие 24 часа)

TLE

СвежийSource: Space-Track

Эпоха: Sep 13, 2026, 07:26 UTC

1 34756U 93036AAA 26256.30997557  .00001267  00000-0  10178-2 0  9997
2 34756  74.0063  12.5715 0339730 191.0645 168.2870 13.67881720871752

Отслеживайте COSMOS 2251 DEB в реальном времени с AllMySat

Download on the App Store